Location: Marlborough
(51.4223°N, 1.7415°W)
Time: 17:45:49
(UTC+01:00)

ISS - Visible Passes

Search period start: 20 April 2024 00:00
Search period end: 30 April 2024 00:00
Orbit: 412 x 418 km, 51.6° (Epoch: 20 April)

Date Brightness Start Highest point End Pass type
(mag) Time Alt. Az. Time Alt. Az. Time Alt. Az.
21 Apr -1.1 05:21:16 10° SSE 05:22:33 12° SE 05:23:50 10° ESE visible
24 Apr -1.5 04:30:11 10° S 04:32:20 16° SE 04:34:29 10° E visible
25 Apr -1.2 03:43:01 10° SSE 03:43:36 11° SE 03:44:26 10° ESE visible
26 Apr -2.5 04:28:40 16° SSW 04:30:44 30° SSE 04:33:43 10° E visible
27 Apr -2.1 03:41:23 21° SSE 03:41:51 22° SE 03:44:29 10° E visible
28 Apr -1.3 02:54:02 13° ESE 02:54:02 13° ESE 02:54:57 10° ESE visible
28 Apr -3.5 04:26:53 18° SW 04:29:09 54° SSE 04:32:25 10° E visible
29 Apr -3.1 03:39:28 35° S 03:40:07 39° SSE 03:43:16 10° E visible
